Hourly Data Report for April 11, 2017

OTTAWA INTL A
ONTARIO

45°19'00.000" N
75°40'00.000" W
114.90 m
6106001
71628
YOW

Download Data

Hourly Data (April 2017)
Hourly Data Report for April 11, 2017
TIME
LST
Temp Definition
°C
Dew Point Definition
°C
Rel Hum Definition
%
Precip. Amount Definition
mm

Wind Dir Definition
10's deg

Wind Spd Definition
km/h
Visibility Definition
km
Stn Press Definition
kPa
Hmdx Definition


Wind Chill Definition


Weather Definition


00:00 12.3 11.8 97   28 6 24.1 100.12     LegendNANA
01:00 11.0 10.6 97   33 22 24.1 100.16     Cloudy
02:00 8.0 7.7 98   34 17 9.7 100.30     Drizzle, Fog
03:00 6.2 6.1 99   34 18 12.9 100.27     Drizzle
04:00 5.6 5.0 96   35 18 16.1 100.25     Rain
05:00 5.4 4.8 96   35 18 24.1 100.31     LegendNANA
06:00 5.0 4.3 95   1 10 24.1 100.38     LegendNANA
07:00 5.6 4.9 95   2 13 24.1 100.36     Cloudy
08:00 5.4 4.8 96   31 17 12.9 100.39     LegendNANA
09:00 4.8 4.7 99   33 17 6.4 100.47     Rain, Fog
10:00 5.4 4.8 96   33 15 24.1 100.50     Cloudy
11:00 5.9 4.7 92   34 9 24.1 100.52     LegendNANA
12:00 6.5 5.1 91   35 9 24.1 100.55     LegendNANA
13:00 7.5 5.5 87   25 6 24.1 100.60     Cloudy
14:00 8.2 5.5 83   30 7 24.1 100.58     LegendNANA
15:00 8.8 5.6 80   32 10 24.1 100.60     LegendNANA
16:00 8.8 5.7 81   32 8 24.1 100.61     Cloudy
17:00 8.2 5.8 85   3 7 24.1 100.61     LegendNANA
18:00 7.7 6.2 90   7 9 24.1 100.61     LegendNANA
19:00 6.9 6.8 99   7 8 6.4 100.59     Fog
20:00 6.8 6.8 100   9 13 0.8 100.59     Fog
21:00 6.6 6.6 100   8 13 0.8 100.58     Fog
22:00 6.4 6.4 100   7 19 0.4 100.52     Fog
23:00 6.0 6.0 100   8 16 1.2 100.48     Fog

Notes on Data Quality.

Legend

  • E = Estimated
  • M = Missing
  • NA = Not Available*
  • [empty] = Indicates an unobserved value
Date modified: